TimeEDT,TemperatureF,Dew PointF,Humidity,Sea Level PressureIn,VisibilityMPH,Wind Direction,Wind SpeedMPH,Gust SpeedMPH,PrecipitationIn,Events,Conditions,WindDirDegrees,DateUTC
12:54 AM,52.0,46.9,83,30.10,10.0,Calm,Calm,-,N/A,,Clear,0,2013-09-10 04:54:00
1:54 AM,55.0,48.0,77,30.11,10.0,Variable,3.5,-,N/A,,Clear,0,2013-09-10 05:54:00
2:54 AM,55.9,48.0,75,30.09,10.0,Calm,Calm,-,N/A,,Clear,0,2013-09-10 06:54:00
3:54 AM,51.1,48.0,89,30.09,10.0,Calm,Calm,-,N/A,,Clear,0,2013-09-10 07:54:00
4:54 AM,48.0,46.0,93,30.10,10.0,Calm,Calm,-,N/A,,Clear,0,2013-09-10 08:54:00
5:54 AM,48.0,46.0,93,30.09,10.0,Calm,Calm,-,N/A,,Clear,0,2013-09-10 09:54:00
6:54 AM,51.1,48.9,92,30.10,10.0,Calm,Calm,-,N/A,,Clear,0,2013-09-10 10:54:00
7:54 AM,54.0,51.1,90,30.09,10.0,Calm,Calm,-,N/A,,Scattered Clouds,0,2013-09-10 11:54:00
8:54 AM,57.0,52.0,83,30.09,10.0,Calm,Calm,-,N/A,,Scattered Clouds,0,2013-09-10 12:54:00
9:54 AM,59.0,52.0,78,30.07,10.0,Calm,Calm,-,N/A,,Overcast,0,2013-09-10 13:54:00
10:54 AM,61.0,55.0,81,30.08,10.0,Calm,Calm,-,0.00,Rain,Light Rain,0,2013-09-10 14:54:00
11:54 AM,62.1,57.0,84,30.06,10.0,SW,4.6,-,0.01,Rain,Light Rain,230,2013-09-10 15:54:00
12:29 PM,62.6,59.0,88,30.06,10.0,Calm,Calm,-,0.00,Rain,Light Rain,0,2013-09-10 16:29:00
12:54 PM,61.0,59.0,93,30.07,6.0,Calm,Calm,-,0.03,Rain,Light Rain,0,2013-09-10 16:54:00
1:34 PM,62.6,60.8,94,30.05,9.0,Calm,Calm,-,0.03,Rain,Light Rain,0,2013-09-10 17:34:00
1:42 PM,62.6,60.8,94,30.05,6.0,Calm,Calm,-,0.03,Rain,Light Rain,0,2013-09-10 17:42:00
1:54 PM,63.0,60.1,90,30.05,9.0,Calm,Calm,-,0.04,Rain,Light Rain,0,2013-09-10 17:54:00
2:21 PM,64.4,60.8,88,30.04,10.0,Calm,Calm,-,0.00,,Overcast,0,2013-09-10 18:21:00
2:50 PM,66.2,62.6,88,30.03,10.0,Calm,Calm,-,0.00,,Overcast,0,2013-09-10 18:50:00
2:54 PM,64.9,61.0,87,30.04,10.0,Calm,Calm,-,0.00,,Overcast,0,2013-09-10 18:54:00
3:19 PM,66.2,62.6,88,30.02,10.0,Calm,Calm,-,N/A,,Overcast,0,2013-09-10 19:19:00
3:28 PM,68.0,62.6,83,30.02,10.0,Calm,Calm,-,N/A,,Mostly Cloudy,0,2013-09-10 19:28:00
3:43 PM,66.2,62.6,88,30.02,10.0,Calm,Calm,-,N/A,,Mostly Cloudy,0,2013-09-10 19:43:00
3:54 PM,64.9,61.0,87,30.03,10.0,North,5.8,-,N/A,,Overcast,350,2013-09-10 19:54:00
4:03 PM,64.4,60.8,88,30.03,10.0,NNW,5.8,-,N/A,,Overcast,340,2013-09-10 20:03:00
4:28 PM,64.4,60.8,88,30.03,10.0,NW,4.6,-,N/A,,Overcast,320,2013-09-10 20:28:00
4:38 PM,64.4,60.8,88,30.04,10.0,NNW,4.6,-,N/A,,Overcast,330,2013-09-10 20:38:00
4:54 PM,64.0,60.1,87,30.04,10.0,Calm,Calm,-,N/A,,Overcast,0,2013-09-10 20:54:00
5:19 PM,64.4,60.8,88,30.03,10.0,Calm,Calm,-,N/A,,Overcast,0,2013-09-10 21:19:00
5:50 PM,64.4,60.8,88,30.04,10.0,Calm,Calm,-,N/A,,Overcast,0,2013-09-10 21:50:00
5:54 PM,64.0,60.1,87,30.05,10.0,Calm,Calm,-,N/A,,Overcast,0,2013-09-10 21:54:00
6:23 PM,64.4,60.8,88,30.05,10.0,Calm,Calm,-,N/A,,Overcast,0,2013-09-10 22:23:00
6:54 PM,64.0,61.0,90,30.06,10.0,Calm,Calm,-,N/A,,Overcast,0,2013-09-10 22:54:00
7:21 PM,62.6,60.8,94,30.06,10.0,NW,3.5,-,N/A,,Overcast,320,2013-09-10 23:21:00
7:44 PM,62.6,60.8,94,30.06,10.0,Calm,Calm,-,N/A,,Overcast,0,2013-09-10 23:44:00
7:54 PM,62.1,60.1,93,30.07,10.0,Calm,Calm,-,N/A,,Overcast,0,2013-09-10 23:54:00
8:54 PM,63.0,61.0,93,30.08,10.0,Calm,Calm,-,N/A,,Overcast,0,2013-09-11 00:54:00
9:54 PM,63.0,60.1,90,30.08,10.0,Calm,Calm,-,N/A,,Overcast,0,2013-09-11 01:54:00
10:54 PM,63.0,61.0,93,30.07,10.0,Calm,Calm,-,N/A,,Overcast,0,2013-09-11 02:54:00
11:22 PM,62.6,60.8,94,30.06,10.0,Calm,Calm,-,N/A,,Overcast,0,2013-09-11 03:22:00
11:36 PM,62.6,60.8,94,30.06,10.0,Calm,Calm,-,N/A,,Overcast,0,2013-09-11 03:36:00
11:54 PM,62.1,60.1,93,30.06,10.0,Calm,Calm,-,N/A,,Overcast,0,2013-09-11 03:54:00